Weather History for KMYR - June, 2013

Change the Weather History Date:

Wednesday, June 19, 2013

  Actual Average Record
Temperature  
Mean Temperature 76 °F -  
Max Temperature 78 °F 81 °F 96 °F (2011)
Min Temperature 73 °F 66 °F 60 °F (2008)
Cooling Degree Days 10    
Growing Degree Days 26 (Base 50)    
Moisture  
Dew Point 71 °F    
Average Humidity 81    
Maximum Humidity 89    
Minimum Humidity 74    
Precipitation  
Precipitation 0.07 in - - ()
Sea Level Pressure  
Sea Level Pressure 29.95 in    
Wind  
Wind Speed 8 mph (West)    
Max Wind Speed 15 mph    
Max Gust Speed 20 mph    
Visibility 10 miles    
Events      
Averages and records for this station are not official NWS values.
T = Trace of Precipitation, MM = Missing Value Source: NWS Daily Summary

Daily Weather History Graph

Daily Weather History Graph

Search for Another Location

Airport or City:

Trip Planner

Search our weather history database for the weather conditions in past years. The results will help you decide how hot, cold, wet, or windy it might be!

Date:

Astronomy

Jun. 19, 2013 Rise Set
Actual Time 6:05 AM EDT 8:28 PM EDT
Civil Twilight 5:36 AM EDT 8:58 PM EDT
Nautical Twilight 5:00 AM EDT 9:33 PM EDT
Astronomical Twilight 4:21 AM EDT 10:12 PM EDT
Moon 4:27 PM EDT (6/19) 2:39 AM EDT (6/19)
Length of Visible Light 15h 21m
Length of Day
14h 23m
Waxing Gibbous, 80% of the Moon is Illuminated
Jun 19
Waxing Gibbous
Jun 23
Full
Jun 30
Last Quarter
Jul 8
New
Jul 15
First Quarter

Hourly Weather History & Observations

Time (EDT) Temp. Dew Point Humidity Pressure Visibility Wind Dir Wind Speed Gust Speed Precip Events Conditions
12:15 AM 77.0 °F 71.6 °F 83% 29.90 in 10.0 mi SW 5.8 mph - N/A   Clear
12:35 AM 78.8 °F 71.6 °F 78% 29.90 in 10.0 mi SW 9.2 mph - N/A   Clear
12:55 AM 78.8 °F 71.6 °F 78% 29.90 in 10.0 mi SW 5.8 mph - N/A   Clear
1:15 AM 78.8 °F 71.6 °F 78% 29.90 in 10.0 mi SW 5.8 mph - N/A   Clear
1:35 AM 78.8 °F 71.6 °F 78% 29.90 in 10.0 mi SW 6.9 mph - N/A   Partly Cloudy
1:55 AM 78.8 °F 73.4 °F 83% 29.90 in 10.0 mi SW 5.8 mph - N/A   Clear
2:15 AM 78.8 °F 73.4 °F 83% 29.90 in 10.0 mi SW 9.2 mph - N/A   Scattered Clouds
2:35 AM 78.8 °F 73.4 °F 83% 29.89 in 10.0 mi SSW 9.2 mph - N/A   Partly Cloudy
2:55 AM 78.8 °F 73.4 °F 83% 29.88 in 10.0 mi SW 9.2 mph 16.1 mph N/A   Clear
3:15 AM 78.8 °F 73.4 °F 83% 29.88 in 10.0 mi SW 9.2 mph - N/A   Clear
3:35 AM 78.8 °F 73.4 °F 83% 29.89 in 10.0 mi SW 8.1 mph 16.1 mph N/A   Partly Cloudy
3:55 AM 78.8 °F 73.4 °F 83% 29.89 in 10.0 mi SW 8.1 mph - N/A   Partly Cloudy
4:15 AM 78.8 °F 73.4 °F 83% 29.88 in 10.0 mi SW 9.2 mph - N/A   Clear
4:35 AM 78.8 °F 73.4 °F 83% 29.88 in 10.0 mi WSW 9.2 mph - N/A   Clear
4:55 AM 78.8 °F 73.4 °F 83% 29.89 in 10.0 mi WSW 10.4 mph 19.6 mph N/A   Clear
5:15 AM 78.8 °F 71.6 °F 78% 29.89 in 10.0 mi West 12.7 mph - N/A   Clear
5:35 AM 77.0 °F 71.6 °F 83% 29.90 in 10.0 mi West 10.4 mph - N/A   Clear
5:50 AM 77.0 °F 71.6 °F 83% 29.90 in 10.0 mi West 10.4 mph - N/A   Mostly Cloudy
6:50 AM 75.2 °F 71.6 °F 89% 29.92 in 10.0 mi Variable 6.9 mph - N/A   Scattered Clouds
7:45 AM 77.0 °F 71.6 °F 83% 29.94 in 10.0 mi Variable 6.9 mph - N/A   Scattered Clouds
8:15 AM 78.8 °F 73.4 °F 83% 29.95 in 10.0 mi Variable 6.9 mph - N/A   Mostly Cloudy
8:45 AM 78.8 °F 69.8 °F 74% 29.96 in 10.0 mi NW 9.2 mph - N/A   Mostly Cloudy
9:45 AM 78.8 °F 71.6 °F 78% 29.99 in 10.0 mi NW 8.1 mph - N/A   Mostly Cloudy
10:45 AM 78.8 °F 71.6 °F 78% 29.99 in 10.0 mi NNW 8.1 mph - N/A   Mostly Cloudy
11:45 AM 77.0 °F 69.8 °F 78% 30.00 in 10.0 mi North 9.2 mph - N/A   Mostly Cloudy
12:45 PM 78.8 °F 69.8 °F 74% 30.00 in 10.0 mi NNE 9.2 mph - N/A   Overcast
1:45 PM 78.8 °F 69.8 °F 74% 30.00 in 10.0 mi NNE 9.2 mph - N/A   Overcast
2:45 PM 78.8 °F 69.8 °F 74% 29.99 in 10.0 mi NNE 9.2 mph - N/A   Overcast
3:45 PM 78.8 °F 69.8 °F 74% 29.99 in 10.0 mi NE 10.4 mph - N/A   Overcast
4:45 PM 77.0 °F 69.8 °F 78% 30.00 in 10.0 mi ENE 8.1 mph - N/A   Overcast
5:45 PM 75.2 °F 69.8 °F 83% 30.00 in 10.0 mi NNE 6.9 mph - N/A   Mostly Cloudy
6:45 PM 75.2 °F 69.8 °F 83% 30.01 in 10.0 mi NNE 6.9 mph - N/A   Mostly Cloudy
7:45 PM 75.2 °F 68.0 °F 78% 30.01 in 10.0 mi ENE 6.9 mph - N/A   Mostly Cloudy
8:50 PM 75.2 °F 69.8 °F 83% 30.02 in 10.0 mi ENE 15.0 mph - N/A   Mostly Cloudy
9:50 PM 73.4 °F 69.8 °F 88% 30.06 in 10.0 mi East 11.5 mph - N/A   Mostly Cloudy
11:15 PM 73.4 °F 69.8 °F 88% 30.08 in 10.0 mi East 9.2 mph 19.6 mph N/A   Mostly Cloudy
11:35 PM 73.4 °F 69.8 °F 88% 30.08 in 4.0 mi East 12.7 mph 19.6 mph 0.03 in   Overcast
11:55 PM 73.4 °F 69.8 °F 88% 30.08 in 5.0 mi ENE 12.7 mph 19.6 mph 0.07 in   Overcast